Content
SEND FEEDBACK

Daily
Averages
Monthly
Summary
United States of America

HYANNIS, MASSACHUSETTS


Home > North America > United States > Massachusetts
Elevation: 2 feet     Latitude: 41 40N     Longitude: 070 18W

WEATHER
 
SELECT A DAY
Number of Records: 210,161;   Date Range: 1/1/95 - 10/21/14
 
SHARE

PRINT THIS DATA

[ ← Previous Day ]
WEATHER ALMANAC - FEBRUARY 13, 2013
[ Next Day → ]
[ °C ]   °F
Weather ElementAverageHighLow
Temperature34.5 °F41 °F (11:56 am)28.9 °F (7:56 pm)
Dewpoint24.6 °F28.9 °F (10:56 pm)21.9 °F (6:56 am)
Humidity68.5 %92 % (8:56 pm)47 % (11:56 am)
Barometer29.80 in29.87 in (7:56 am)29.68 in (10:56 pm)
Wind Speed5.2 mph11.5 mph (12:56 pm)
Weather ElementAverage
Visibility10 mi
Wind DirectionSSE (168.7 °)

Weather ElementTotal
Precipitation---
Heating Degree Days30.1 (Base 65)
Averaged from 23 records on February 13, 2013
WEATHER CONDITIONS BREAKOUT
WIND DIRECTION BREAKOUT
WEATHER BY HOUR - FEBRUARY 13, 2013
[ °C ]   °F
Local TimeTemperatureDewpointHumidityBarometerVisibilityWind DirectionWind SpeedGust SpeedPrecipitationEventsConditions
1:56 AM32.0 °F25.0 °F75 %29.84 in10.0 miCalmClear
2:56 AM30.0 °F24.1 °F79 %29.85 in10.0 miWSW (250°)6.9 mphClear
3:56 AM32.0 °F25.0 °F75 %29.86 in10.0 miWest (260°)6.9 mphClear
4:56 AM30.9 °F23.0 °F72 %29.86 in10.0 miWSW (250°)4.6 mphPartly Cloudy
5:56 AM32.0 °F23.0 °F69 %29.85 in10.0 miWNW (290°)8.1 mphScattered Clouds
6:56 AM32.0 °F21.9 °F66 %29.85 in10.0 miWNW (290°)8.1 mphClear
7:56 AM35.1 °F23.0 °F61 %29.87 in10.0 miWest (270°)6.9 mphClear
8:56 AM37.0 °F23.0 °F57 %29.87 in10.0 miWest (260°)9.2 mphClear
9:56 AM39.0 °F23.0 °F53 %29.86 in10.0 miWNW (300°)6.9 mphClear
10:56 AM39.9 °F23.0 °F51 %29.83 in10.0 miNorth (350°)6.9 mphClear
11:56 AM41.0 °F21.9 °F47 %29.83 in10.0 miNorth (10°)4.6 mphClear
12:56 PM41.0 °F25.0 °F53 %29.82 in10.0 miSW (220°)11.5 mphClear
1:56 PM39.9 °F24.1 °F53 %29.81 in10.0 miSouth (190°)10.4 mphClear
2:56 PM39.0 °F24.1 °F55 %29.79 in10.0 miSSW (200°)10.4 mphClear
3:56 PM37.9 °F23.0 °F55 %29.76 in10.0 miSSW (210°)8.1 mphClear
4:56 PM36.0 °F25.0 °F64 %29.76 in10.0 miSSW (200°)6.9 mphClear
5:56 PM34.0 °F26.1 °F73 %29.77 in10.0 miCalmClear
6:56 PM30.0 °F25.0 °F82 %29.75 in10.0 miCalmClear
7:56 PM28.9 °F25.0 °F85 %29.74 in10.0 miCalmClear
8:56 PM28.9 °F27.0 °F92 %29.73 in10.0 miCalmClear
9:56 PM30.9 °F28.0 °F89 %29.72 in10.0 miCalmOvercast
10:56 PM32.0 °F28.9 °F88 %29.68 in10.0 miCalmOvercast
11:56 PM33.1 °F28.0 °F82 %29.69 in10.0 miNNW (330°)3.5 mphOvercast
Hourly data recorded from KHYA, located miles away from Hyannis, Massachusetts







STORIES FROM OUR PARTNERS